Wind_Speed
8 6 6 7 8 7 7 10 13 14 13 13 13 11 11 11 9 11 12 10 10 9 11 11 10 10 13 13 14 17 18 15 14 13 11 11 9 5 10 14 16 16 14 10 7 10 11 7 5 8 8 11 17 19 20 21 19 17 18 21 22 21 21 20 21 24 25 24 22 21 21 20 20 20 21 22 21 22 23 23 21 21 21 20 20 21
5 6 7 11 9 10 10 10 12 12 11 11 11 10 10 9 9 11 12 12 11 8 11 15 15 14 13 12 13 15 15 13 13 13 11 11 8 7 21 19 16 16 14 10 11 14 14 12 9 8 7 9 15 19 21 21 19 18 16 18 21 22 21 20 20 21 24 25 24 24 23 22 21 21 21 21 21 22 23 23 22 20 20 20 21 21
6 6 10 10 6 10 9 9 11 11 11 11 9 9 9 7 9 11 9 10 11 8 10 16 16 14 14 13 13 12 12 11 10 11 10 9 4 11 20 16 14 14 13 13 14 17 17 16 14 10 8 8 13 18 21 21 19 19 17 16 19 22 22 20 20 20 21 23 24 24 23 22 22 22 21 20 19 20 21 22 21 21 20 20 21 20
7 6 9 6 5 8 11 10 11 11 9 10 8 8 9 8 10 9 8 12 12 10 13 16 14 11 12 10 9 10 11 8 7 8 7 5 2 13 18 15 15 14 14 15 15 17 19 18 16 12 9 8 12 17 21 21 19 19 18 16 17 20 22 22 21 20 19 19 22 22 21 20 19 19 19 19 19 20 21 21 22 22 21 20 21 21
8 9 11 10 6 8 11 10 12 10 7 10 11 8 7 11 13 12 13 14 13 13 14 16 12 7 8 8 6 9 11 9 8 8 4 1 7 20 21 15 15 15 16 18 19 19 20 18 15 12 9 10 13 17 21 21 20 19 18 17 17 18 20 22 21 21 20 20 21 22 21 19 19 19 19 20 22 23 22 21 22 22 22 21 21 22
9 12 9 7 7 8 10 10 12 12 7 10 13 10 10 14 16 17 17 15 10 9 10 11 9 6 8 10 8 6 7 7 7 7 5 3 8 18 19 15 14 14 14 17 19 18 17 16 13 10 9 11 13 15 19 21 21 20 18 17 17 18 19 21 22 22 23 23 23 25 25 24 24 24 24 24 24 24 23 22 21 22 23 23 23 23
8 12 9 8 8 5 8 10 11 13 9 7 12 15 16 17 17 18 18 14 9 8 10 11 9 7 7 9 9 6 6 6 6 7 6 4 9 10 12 13 12 11 12 13 14 14 15 14 12 11 10 10 12 14 15 19 22 21 19 17 18 19 19 21 23 23 24 24 24 26 28 27 27 27 26 24 24 24 22 21 21 21 23 23 23 23
7 12 12 11 11 6 7 9 10 14 9 8 14 18 18 18 17 18 16 12 9 10 12 12 10 7 6 8 9 6 4 4 2 3 3 8 14 11 9 11 10 10 9 9 12 14 16 16 16 16 14 11 12 14 14 17 22 22 20 20 20 21 19 20 23 25 26 26 25 26 27 27 26 26 25 23 23 23 21 21 21 22 23 23 24 24
10 13 12 12 10 7 7 9 13 16 11 11 16 17 16 16 16 17 13 10 11 10 8 9 9 6 5 6 5 4 4 3 1 4 7 12 14 11 9 10 11 10 9 11 13 15 17 17 17 18 17 17 16 16 17 17 20 22 22 22 22 22 21 20 22 26 27 27 27 26 26 27 26 25 23 21 20 20 20 21 21 21 23 24 26 26
11 11 10 10 8 5 8 11 14 14 12 13 16 16 15 16 16 14 11 10 10 9 7 9 9 6 5 5 3 2 3 4 4 5 8 11 12 10 8 8 10 11 13 15 14 14 16 17 18 18 17 18 17 17 18 17 19 22 21 22 23 24 24 23 23 26 28 28 28 26 27 28 27 24 23 22 20 19 21 22 22 22 23 24 26 26
14 14 10 6 4 4 8 11 13 14 14 14 13 12 13 13 10 9 9 8 7 7 7 9 9 7 6 3 3 4 4 5 5 6 7 9 12 12 9 10 11 11 12 13 13 15 17 18 19 19 18 19 18 17 18 17 19 22 22 22 24 25 26 27 26 26 27 28 28 28 27 28 28 25 25 25 24 22 23 24 24 24 23 23 23 25
12 8 5 3 5 6 7 9 12 13 14 13 9 9 9 8 7 6 6 5 5 6 7 8 10 9 6 3 5 7 10 10 9 9 10 12 14 16 15 15 14 13 13 12 12 15 17 19 23 24 22 20 19 18 19 19 20 22 23 23 25 27 29 30 29 28 27 28 28 28 27 27 28 27 27 27 27 26 25 25 25 24 23 22 21 22
9 6 3 5 8 9 7 7 9 9 10 10 8 8 7 5 5 5 6 5 5 6 6 11 14 10 6 6 7 9 11 12 12 12 13 13 15 16 17 16 15 15 16 14 14 14 15 17 22 25 24 24 23 21 21 21 22 24 24 25 27 28 30 30 30 29 28 29 29 27 27 27 27 28 28 28 27 28 27 25 25 25 24 24 23 22
5 5 8 3 6 11 9 7 7 7 8 9 8 6 6 7 5 5 6 5 6 7 9 15 16 8 5 8 9 11 13 13 14 14 15 15 15 15 15 15 16 17 17 17 15 15 15 17 19 21 23 24 25 25 24 24 24 25 27 29 29 30 30 29 28 27 27 29 30 28 27 26 27 28 29 28 27 27 27 26 25 24 24 24 24 23
7 3 7 6 6 10 10 8 8 9 9 9 8 7 7 5 5 5 6 6 7 9 11 13 11 6 5 8 8 9 13 13 14 14 13 13 12 12 12 13 14 16 18 19 19 18 18 18 19 21 23 23 25 26 26 27 28 28 30 31 32 32 31 30 30 27 27 29 29 29 28 27 27 28 29 28 27 26 26 26 25 23 23 24 23 22
9 6 5 9 10 11 9 7 8 10 8 6 7 7 6 5 5 6 7 9 10 9 8 7 4 6 6 5 10 10 10 12 12 10 9 9 12 14 17 19 19 19 22 24 26 27 27 26 25 25 24 23 25 27 26 28 30 31 32 32 32 33 29 27 29 30 31 31 30 29 28 28 28 27 28 28 28 28 26 25 25 24 23 22 21 20
6 7 10 14 13 11 10 9 9 8 6 6 7 7 7 10 8 7 6 8 9 7 6 5 5 7 6 4 13 14 10 9 9 11 15 19 23 24 26 28 27 26 27 28 29 30 31 32 32 31 28 27 27 28 28 28 30 32 32 31 31 32 28 25 25 27 30 31 33 33 29 27 29 29 28 28 28 28 27 25 24 24 23 22 21 20
5 7 11 14 12 11 13 12 13 14 11 7 7 7 8 10 8 5 5 5 6 8 5 6 8 7 7 2 8 11 8 7 10 14 19 23 25 25 25 26 27 27 28 29 30 31 32 33 33 33 33 32 31 31 31 30 30 32 32 32 31 31 30 29 28 27 27 26 29 33 31 28 30 31 29 27 28 27 26 26 25 24 23 22 22 22
6 7 8 9 10 11 12 11 12 13 11 7 6 7 6 7 7 4 5 5 7 8 5 7 10 7 6 3 5 8 7 10 13 15 16 18 20 21 22 24 25 26 27 29 30 30 32 32 32 34 35 35 34 34 32 31 32 33 33 32 31 32 34 33 31 30 29 26 25 28 31 31 30 32 31 27 27 26 25 25 25 24 24 23 22 23
5 5 5 7 10 12 10 7 9 6 2 2 5 7 6 6 7 6 5 5 7 8 7 9 9 5 5 4 8 12 13 13 14 13 12 14 17 19 20 21 23 24 25 26 27 28 29 30 30 32 33 34 35 35 34 34 33 34 35 32 29 33 37 36 33 31 31 29 26 25 28 32 33 33 32 29 26 26 26 25 23 22 22 22 22 23
4 4 5 7 9 11 7 6 6 6 5 6 6 6 7 6 6 7 6 6 7 7 7 8 8 5 3 7 10 14 15 13 12 12 10 13 16 17 18 20 20 21 23 24 25 25 27 28 29 30 32 33 34 35 37 38 36 35 37 36 32 32 35 37 36 33 32 30 28 25 25 30 34 33 31 30 28 26 25 24 21 20 21 22 22 23
3 3 5 8 7 7 8 8 11 10 7 6 6 7 7 6 6 6 6 6 6 7 7 7 9 8 3 8 10 10 12 11 12 12 10 12 15 16 17 19 19 20 22 23 24 25 25 26 29 32 33 33 35 35 37 38 38 35 35 36 36 35 34 37 38 36 34 32 29 27 25 27 30 31 30 29 28 27 26 25 22 19 21 24 23 23
4 4 5 8 8 9 13 15 15 13 7 5 7 8 6 5 5 5 6 7 6 8 9 8 10 10 4 8 9 6 14 13 14 13 12 13 14 15 17 18 18 19 21 21 22 24 25 26 29 31 31 33 36 36 35 35 35 36 34 33 34 35 36 38 38 37 38 34 28 25 25 26 26 27 29 28 28 27 26 27 24 21 22 24 24 23
3 4 5 7 8 9 14 15 12 10 6 5 6 6 5 5 6 6 7 7 7 9 9 7 10 10 5 7 9 3 9 11 12 15 13 14 14 15 17 18 19 20 22 23 23 22 23 26 26 26 27 31 34 35 36 34 34 37 36 33 32 32 34 36 35 34 36 33 26 23 22 21 22 23 24 26 27 27 27 27 26 24 24 24 23 23
3 4 4 7 7 6 8 8 4 5 4 4 6 7 8 10 11 10 9 7 7 11 12 10 10 9 6 7 11 12 9 10 13 14 13 14 17 18 19 20 21 22 23 24 26 25 24 24 23 23 26 29 31 32 35 35 34 37 39 37 35 33 32 33 34 31 27 24 22 20 17 15 17 19 20 22 24 26 27 28 27 26 25 23 23 23
3 5 4 5 6 6 5 5 4 3 4 6 8 11 12 12 13 11 8 7 8 11 13 11 9 11 12 12 14 16 15 18 22 19 15 15 19 21 23 22 22 23 25 25 26 26 26 23 22 24 25 27 29 30 32 34 33 34 37 40 39 37 34 33 34 32 25 22 26 26 19 15 16 17 19 21 24 26 28 29 29 27 26 24 24 23
4 5 7 9 9 8 9 9 10 11 10 11 13 15 14 13 14 11 7 8 9 10 12 13 13 15 15 15 16 17 17 17 18 20 21 22 22 23 26 26 23 23 25 26 25 26 27 25 22 22 23 24 28 30 31 32 31 29 32 38 40 38 35 34 34 34 29 24 28 29 22 18 18 20 22 22 24 27 28 29 29 28 26 25 24 23
5 6 8 12 12 12 14 15 15 14 14 15 16 16 15 14 15 12 10 12 11 10 12 13 15 17 16 17 18 18 18 17 17 18 21 23 23 23 26 26 25 25 25 25 25 25 26 25 22 22 24 25 27 30 30 30 30 29 29 35 40 37 33 32 35 36 32 27 27 27 22 15 13 16 21 22 24 25 26 26 27 27 27 26 23 23
4 6 8 11 14 15 16 16 16 14 14 16 17 18 18 17 16 14 15 16 13 12 13 15 19 20 17 17 18 18 17 17 19 21 21 23 25 25 24 25 26 26 26 26 26 25 25 24 22 22 25 26 25 27 30 30 30 30 29 32 38 39 34 31 33 36 35 32 30 29 26 21 14 12 15 19 23 25 25 24 25 27 27 25 22 21
2 5 7 11 13 14 15 16 17 17 17 17 18 18 17 15 15 16 16 17 17 17 18 20 22 20 15 14 15 17 18 19 21 23 23 25 26 24 23 25 25 25 26 28 28 27 26 23 22 22 23 24 24 26 29 30 29 30 30 30 35 39 38 34 31 34 36 33 30 30 30 26 17 10 9 13 18 24 25 22 23 24 24 22 20 18
2 4 6 8 10 12 14 16 17 17 17 17 16 16 16 16 17 18 16 15 15 16 17 19 19 15 12 14 16 18 20 21 22 23 23 24 25 24 25 26 26 26 28 29 29 29 27 24 23 23 23 23 24 25 27 28 29 29 30 31 32 35 40 39 31 30 33 32 29 29 29 27 19 11 6 5 8 14 19 20 20 21 23 23 18 14
4 5 7 7 8 10 11 13 15 15 14 16 17 17 17 16 14 13 11 10 11 13 14 15 14 11 10 14 17 20 21 22 22 23 23 24 25 25 26 28 29 29 30 31 31 30 28 26 26 25 24 24 25 25 25 27 28 29 29 29 31 34 40 42 34 28 29 29 26 25 25 27 23 13 3 6 8 8 9 13 16 18 21 21 15 11
5 6 6 6 8 9 10 13 14 12 11 12 10 9 9 9 9 10 9 10 11 11 10 10 10 11 13 15 16 17 18 19 21 24 24 26 28 28 28 29 30 32 33 34 31 28 28 28 27 26 25 26 25 25 25 26 27 27 27 28 31 33 38 42 35 27 26 26 25 23 21 20 20 17 8 2 8 9 5 2 8 12 14 13 10 11
7 7 6 6 7 9 11 12 11 10 10 6 1 3 7 9 10 11 10 11 10 9 8 10 13 14 15 15 15 16 18 20 23 26 27 28 29 29 31 32 31 32 35 32 27 26 26 27 28 27 27 27 26 26 25 25 25 26 27 29 32 33 35 39 36 28 26 26 25 25 21 13 11 13 11 6 2 7 9 8 6 5 6 5 4 8
8 8 6 5 6 8 9 9 8 8 6 1 2 4 6 6 7 9 10 10 11 12 13 14 16 16 16 18 20 21 23 24 26 30 30 29 30 31 32 32 30 30 30 27 24 25 26 27 29 31 30 29 27 26 25 24 25 26 27 31 35 34 33 35 35 30 28 25 23 25 23 17 13 10 8 8 5 1 7 11 11 11 9 8 7 5
8 7 6 6 6 7 7 6 7 7 6 7 10 8 5 6 6 8 9 9 10 12 15 15 15 16 17 22 24 23 25 28 30 33 33 29 29 31 31 29 28 28 28 26 24 25 26 28 30 32 31 27 24 25 25 26 27 26 27 34 38 34 30 33 34 32 28 23 22 24 22 19 21 19 13 10 10 8 3 7 10 11 12 12 11 11
9 7 6 6 6 6 7 8 9 9 10 10 7 3 6 4 4 5 6 9 9 12 16 16 16 16 16 21 25 26 29 28 25 28 33 30 29 30 30 30 30 30 31 31 29 29 29 29 31 33 32 28 27 29 30 29 26 26 30 37 39 32 29 33 34 30 26 22 22 24 21 18 21 20 13 10 9 9 8 7 8 8 11 12 12 13
10 8 6 6 6 5 6 8 8 8 8 4 2 5 4 2 2 2 6 9 9 14 16 14 14 16 17 20 25 27 26 21 15 20 29 31 30 32 32 33 34 33 34 34 33 33 33 31 33 35 35 33 33 33 32 29 24 26 32 38 38 32 32 36 35 29 24 21 20 23 23 19 18 15 14 13 12 11 11 11 10 9 10 13 13 13
11 8 7 6 6 6 7 8 7 6 6 4 1 1 3 2 3 3 7 8 6 9 15 17 17 19 20 23 26 24 18 14 12 19 29 33 34 36 36 36 36 34 35 34 33 34 36 34 33 34 34 34 33 29 27 25 22 25 33 38 37 35 36 37 34 28 23 18 18 21 22 19 17 15 16 17 15 13 12 12 11 10 11 14 12 11
11 8 7 8 8 8 8 8 6 5 6 7 6 5 4 5 6 5 7 7 6 14 21 20 20 22 24 27 27 19 13 14 16 24 34 36 37 38 38 38 38 37 37 36 34 35 37 35 33 32 30 30 29 27 26 24 22 26 33 36 37 37 38 35 31 26 21 15 15 20 20 17 15 15 17 16 14 12 11 11 11 11 12 13 11 12
8 7 7 9 9 9 10 9 7 6 5 5 5 3 4 5 3 5 7 7 14 21 24 24 25 27 28 29 26 20 20 26 30 35 40 40 39 40 39 38 38 37 35 34 33 34 36 35 32 31 29 28 28 27 26 23 22 26 32 35 35 36 37 34 28 22 16 10 12 19 20 18 17 20 19 15 12 10 10 10 10 11 12 12 10 9
7 7 8 9 9 8 8 8 7 5 1 2 2 1 0 1 4 6 9 17 23 25 26 28 29 30 30 31 29 28 31 36 37 39 41 40 39 40 40 38 37 37 37 37 36 34 33 31 30 29 27 27 27 26 24 22 22 26 31 32 33 35 35 32 25 18 12 7 10 18 21 19 20 22 18 13 10 9 9 10 12 12 12 11 8 7
5 6 7 7 6 6 6 7 8 6 1 5 4 2 3 4 7 12 19 24 26 26 28 30 30 30 30 31 31 33 35 36 36 38 40 39 38 39 41 41 42 44 45 44 39 34 31 30 30 30 29 28 26 24 22 21 23 27 29 30 31 33 31 28 22 16 10 4 10 19 20 18 18 17 14 10 8 7 8 9 11 12 12 10 8 7
5 6 6 5 4 4 6 6 4 4 4 8 8 6 7 10 15 19 22 25 27 29 29 29 30 31 31 31 33 35 36 36 37 39 39 40 42 42 41 44 47 47 43 38 36 34 32 29 28 28 28 27 25 22 21 21 25 28 28 27 29 29 26 24 19 12 8 1 11 17 16 15 17 16 13 11 10 10 11 11 10 10 10 8 8 7
4 3 4 4 4 4 6 7 8 12 15 14 12 12 14 17 20 22 23 25 28 29 29 30 33 35 34 34 36 36 35 36 38 40 40 43 45 43 41 43 46 43 36 32 31 30 29 27 25 25 25 24 22 20 20 20 24 27 26 25 27 26 22 19 15 12 11 5 8 16 15 14 16 14 12 13 12 11 11 11 10 10 9 7 8 8
6 5 3 4 4 6 10 13 14 14 15 15 15 17 19 20 21 23 24 25 27 29 32 33 35 36 36 36 37 38 38 38 39 42 45 46 45 42 38 38 40 37 32 29 27 25 25 25 24 23 23 22 21 20 19 19 21 25 25 23 23 22 18 14 11 12 14 8 6 15 15 14 14 12 12 12 11 10 10 9 8 8 8 7 7 7
11 12 8 5 4 4 6 8 9 11 13 17 19 19 20 20 21 23 24 26 29 32 35 36 37 37 37 36 36 39 41 38 36 40 45 45 43 40 36 33 35 35 31 28 25 24 24 23 22 22 23 22 20 18 17 17 19 22 23 21 20 19 15 10 9 12 13 10 3 11 12 13 12 9 9 10 9 8 8 7 6 6 6 6 6 6
5 6 5 6 7 7 8 11 14 16 17 17 17 17 19 21 23 25 28 30 33 35 36 37 37 35 35 36 36 37 39 37 34 37 41 41 40 38 33 30 33 32 27 25 24 23 22 21 21 21 21 20 18 16 15 16 18 21 21 19 18 16 12 8 9 11 13 14 6 5 9 11 11 10 9 8 8 8 8 7 6 4 4 4 5 6
6 5 3 6 6 7 10 13 14 13 12 13 16 18 21 23 26 29 31 32 34 35 35 36 35 32 32 35 35 37 39 36 33 35 38 38 37 34 28 26 28 25 21 21 22 21 20 19 19 19 18 17 17 17 17 15 16 19 20 17 16 14 11 9 9 10 13 19 15 3 5 5 9 12 10 6 8 10 9 7 6 5 3 3 4 4
8 4 5 6 6 7 8 8 10 8 8 13 18 21 23 26 28 30 31 32 33 32 32 34 36 33 30 30 32 34 37 35 32 33 36 36 34 29 24 25 25 21 18 18 19 19 18 18 18 17 17 17 17 17 16 15 15 18 19 16 14 12 11 12 10 12 13 17 16 9 7 5 3 7 6 4 5 7 6 5 4 3 2 2 5 5
11 9 8 7 7 8 10 14 14 11 11 16 21 23 25 27 28 29 30 30 30 30 30 32 34 34 32 30 29 30 32 33 32 31 32 33 31 25 22 23 23 20 18 18 18 18 17 17 17 16 15 16 16 15 15 15 14 17 18 15 12 10 10 14 15 15 13 11 11 9 9 10 7 5 4 4 4 4 2 3 5 5 3 2 3 5
Wind_Direction
220 264 279 274 290 316 358 357 335 332 330 318 310 300 298 299 291 293 298 315 337 325 301 302 311 304 294 294 294 292 292 287 285 280 272 279 289 343 49 73 88 88 84 78 47 9 357 340 289 257 258 267 259 246 237 235 228 219 222 223 220 216 203 192 183 179 184 191 196 201 207 212 215 219 222 224 225 226 227 225 221 219 217 216 216 220
227 268 282 272 305 357 5 344 322 316 308 298 297 291 285 285 294 306 308 320 337 331 313 319 323 308 294 296 295 294 293 284 280 280 275 273 273 70 74 75 75 73 64 43 14 10 10 2 336 290 285 288 269 252 240 237 232 223 221 220 220 217 209 201 194 188 187 190 196 201 204 209 212 218 222 223 223 225 227 225 224 222 217 216 218 219
247 258 270 272 347 357 327 314 308 302 292 279 274 276 275 287 304 301 303 328 344 342 316 310 311 301 291 288 280 282 288 280 275 281 279 272 272 80 78 72 68 64 49 24 12 19 16 3 349 320 304 296 275 257 244 240 236 229 224 222 219 217 213 206 202 202 195 193 198 202 206 208 210 216 221 225 227 227 227 225 224 224 221 218 219 220
277 289 299 320 17 326 305 307 302 292 282 277 279 284 292 313 314 307 334 348 333 307 293 291 286 281 285 283 274 291 310 306 281 282 288 284 342 81 79 69 67 63 50 38 29 26 19 6 353 333 313 295 282 268 253 244 236 230 226 225 220 217 216 212 209 210 205 197 198 202 209 212 210 216 221 222 225 226 226 224 223 225 227 221 216 219
290 301 333 351 345 314 310 308 299 291 292 303 301 290 299 322 324 319 327 328 309 289 286 290 286 288 303 297 293 311 319 315 293 287 294 297 88 89 83 69 67 61 49 44 34 24 20 15 2 346 323 301 291 277 265 251 236 231 232 227 219 218 219 216 215 214 209 201 196 199 207 212 210 213 218 216 216 220 221 222 224 225 227 224 220 220
280 295 327 328 304 306 304 299 296 296 309 312 307 320 335 331 322 313 310 308 299 289 298 310 307 306 307 296 299 301 290 301 318 318 324 16 89 98 90 78 72 57 45 42 35 27 23 20 11 355 329 311 301 285 274 262 244 233 235 231 220 219 220 219 219 216 214 208 199 197 202 208 207 208 215 216 216 219 220 223 226 225 226 225 223 223
273 288 287 287 297 298 295 294 299 314 329 308 314 335 333 319 308 303 305 304 299 300 301 298 289 293 305 302 306 302 282 303 336 325 314 49 78 89 79 68 69 65 57 45 39 34 23 19 12 354 339 326 312 299 288 275 259 240 232 231 224 222 222 220 221 220 219 216 207 199 201 208 208 208 215 219 219 223 226 228 229 226 225 224 223 224
301 294 295 322 335 325 298 301 324 337 333 298 312 321 311 307 305 302 304 300 288 287 284 277 278 297 309 303 308 315 307 298 312 322 344 64 68 64 46 32 39 62 67 49 45 38 24 19 15 3 354 344 326 312 298 281 271 255 238 233 228 225 227 226 225 223 223 221 214 205 203 208 211 213 217 221 224 227 229 229 228 226 225 223 222 224
312 304 310 327 323 311 309 326 342 336 314 299 307 304 299 297 291 285 280 271 268 267 276 288 291 297 297 307 339 353 330 324 36 76 66 59 58 58 39 15 16 34 50 57 57 44 31 22 13 9 358 346 340 328 312 294 282 267 247 238 234 229 230 233 230 228 228 226 219 210 205 206 211 214 216 222 227 225 223 223 223 225 225 224 224 226
287 285 298 308 296 306 341 343 333 314 293 292 290 285 286 278 272 276 274 274 283 282 292 300 291 288 298 314 357 3 319 330 5 63 75 68 67 63 39 19 14 19 39 55 60 49 34 19 7 6 356 346 344 332 319 308 294 280 262 246 240 234 230 233 236 234 234 230 221 214 209 207 209 212 213 219 223 218 216 218 220 223 225 225 225 225
274 257 254 299 324 334 345 330 309 298 299 300 290 287 291 287 288 296 291 293 297 292 292 290 289 295 293 298 338 5 30 5 8 59 68 58 60 57 43 36 30 28 37 46 52 46 33 22 15 9 359 350 346 336 324 314 301 292 280 260 249 241 233 232 237 239 237 233 225 219 214 209 208 210 212 214 217 217 215 216 218 222 226 228 226 223
298 260 206 93 44 355 331 316 308 311 324 327 316 307 306 309 312 299 299 313 298 289 299 312 333 339 315 329 19 43 55 39 32 50 54 46 45 47 46 44 42 41 38 34 42 41 29 24 17 10 5 356 349 343 332 322 310 300 290 273 260 252 243 236 235 238 238 235 230 224 219 214 210 209 213 214 214 217 218 216 216 219 223 226 226 223
311 302 8 100 89 30 337 314 325 324 337 337 317 317 320 309 314 312 314 317 288 285 320 336 344 347 321 330 27 62 70 62 58 53 52 52 45 43 44 40 39 42 37 31 38 38 25 18 10 5 3 359 353 347 337 329 319 308 298 287 274 264 257 248 240 238 241 240 237 232 224 221 216 212 215 216 215 218 220 217 215 216 218 221 224 223
303 322 0 7 70 32 342 317 337 333 334 322 304 319 318 302 321 322 303 299 289 294 327 335 333 334 314 321 6 60 75 72 73 66 57 55 48 44 43 36 33 35 33 27 29 33 24 13 6 360 357 356 354 347 340 336 330 320 309 300 292 284 279 275 264 254 252 250 245 241 234 227 223 218 216 217 217 220 221 219 218 220 220 222 227 228
308 311 43 19 355 355 338 335 344 332 316 301 301 307 296 317 348 316 307 315 308 305 316 323 323 320 314 326 357 74 94 78 72 69 60 58 52 44 40 33 26 22 22 18 17 22 19 10 3 357 352 350 350 347 342 338 336 332 322 315 312 307 302 296 287 279 274 265 253 249 244 236 232 227 221 220 220 221 223 223 223 225 226 225 229 233
298 284 35 22 346 329 334 347 341 329 309 302 329 310 297 354 352 302 301 302 299 303 304 300 293 288 296 7 40 70 88 73 66 57 43 42 37 30 24 20 16 14 16 16 15 15 14 9 4 359 352 347 346 346 344 341 338 335 329 325 325 321 315 305 293 291 292 279 262 257 253 246 243 236 228 226 223 221 221 223 224 224 227 228 228 233
299 292 332 347 337 327 336 340 327 316 302 315 321 300 323 346 325 296 296 294 293 290 287 288 281 284 289 46 63 57 56 55 45 36 36 33 30 30 26 20 19 18 16 15 13 10 9 7 4 360 356 350 346 345 344 341 339 336 332 330 329 325 320 313 304 300 298 285 267 262 261 259 254 246 237 231 228 225 221 221 225 225 226 226 225 229
322 300 313 325 322 325 335 328 306 283 264 266 286 299 338 329 295 281 287 288 290 280 279 291 288 302 309 335 71 61 56 48 30 36 43 37 32 31 26 19 17 15 12 10 8 6 5 4 1 358 357 354 352 351 349 344 342 340 337 334 333 330 324 317 311 306 300 290 273 263 262 266 262 253 247 238 230 230 225 220 223 225 225 224 222 225
324 299 297 308 308 326 337 320 298 279 249 229 275 307 324 302 285 289 286 288 294 287 286 282 279 290 291 285 55 51 51 52 41 41 41 35 33 29 20 16 13 11 10 6 3 1 360 359 358 356 355 355 354 353 352 350 349 346 343 339 337 337 335 328 319 310 302 295 283 266 259 263 262 255 255 250 237 233 230 223 223 225 226 225 222 223
305 290 284 301 313 328 331 296 285 297 284 273 307 307 297 293 296 288 277 284 291 294 300 296 292 284 267 309 35 52 54 52 47 42 36 33 32 24 17 14 8 5 5 2 358 357 354 353 354 354 355 356 356 354 353 351 350 350 350 347 340 338 341 341 335 322 310 299 289 277 264 258 256 252 253 256 249 242 238 229 225 229 230 226 223 222
278 266 278 298 315 317 297 270 292 317 325 312 306 304 299 299 299 290 285 284 283 286 292 296 296 286 293 344 22 61 67 58 53 45 31 25 21 17 15 10 5 3 359 356 354 352 351 348 345 344 346 347 350 351 351 349 349 350 352 351 345 337 337 341 340 332 321 309 296 288 274 258 252 248 248 252 252 252 250 238 229 233 235 232 226 222
315 281 294 297 302 294 278 289 303 301 307 315 305 297 292 287 292 292 286 285 288 289 291 292 286 281 320 346 355 52 71 59 53 46 28 17 11 7 7 2 360 359 353 350 347 344 345 345 341 337 336 335 336 337 340 343 347 347 349 351 349 342 335 333 333 331 326 317 302 291 281 266 257 249 245 247 247 248 251 244 233 231 235 235 230 223
12 293 282 278 273 273 277 280 279 277 288 304 285 276 274 280 292 289 288 300 303 293 296 295 279 278 317 332 329 62 93 82 62 47 26 14 8 1 358 353 350 347 343 341 339 337 336 335 333 333 334 333 332 332 333 336 339 339 340 346 347 344 338 330 327 327 325 318 304 290 280 270 261 248 241 243 244 243 245 243 239 235 233 232 231 226
20 272 267 279 276 275 278 274 257 243 238 245 267 277 281 301 319 315 308 313 303 286 288 281 268 273 305 319 312 12 106 98 70 55 30 3 356 351 344 341 338 335 333 331 329 330 332 329 325 326 332 334 334 332 330 331 332 330 332 339 341 342 342 335 327 325 324 318 304 290 282 269 252 239 236 237 238 239 241 242 243 241 237 231 230 231
356 278 298 302 294 292 289 281 240 199 223 285 313 311 301 311 321 315 307 306 288 278 277 269 265 275 293 301 301 305 309 322 347 19 26 358 343 337 332 332 332 329 329 328 326 328 330 330 328 325 326 329 332 331 327 327 329 325 324 328 331 333 337 336 330 323 323 327 317 299 288 273 253 242 237 234 235 240 242 242 241 241 239 233 231 234
305 272 288 282 282 293 293 301 324 331 315 310 309 305 304 309 311 306 301 287 271 275 276 269 270 282 290 298 304 309 315 319 324 336 347 341 338 334 328 325 325 327 326 325 325 327 327 327 329 326 323 323 327 329 327 326 328 326 322 320 323 326 325 326 329 325 319 326 326 313 295 272 260 253 245 241 242 244 243 241 239 238 237 234 230 232
278 256 254 254 261 274 278 291 311 316 305 296 295 296 297 299 296 294 287 273 275 286 278 270 279 288 294 304 306 305 309 312 316 321 324 328 334 332 322 316 317 323 322 320 322 325 325 326 327 328 327 323 321 323 324 324 326 329 326 321 322 327 322 314 318 323 319 316 317 313 299 273 258 254 250 247 247 248 245 240 238 237 234 232 228 226
260 255 256 263 264 272 280 286 294 294 286 285 288 289 288 288 285 278 268 269 279 282 272 276 291 293 293 299 300 303 311 314 316 318 323 327 325 315 310 311 316 318 316 315 318 321 322 323 325 328 327 324 322 321 322 322 323 326 327 322 323 330 329 315 309 314 318 314 307 306 303 286 264 255 252 247 244 245 245 240 238 239 235 230 228 225
262 270 271 281 278 279 282 282 284 284 280 281 281 279 279 276 272 267 265 269 272 271 275 287 291 287 289 300 307 314 319 318 317 321 325 321 310 303 306 311 312 311 310 311 314 316 316 317 321 324 323 320 322 323 321 321 321 323 325 322 323 329 332 323 309 306 313 312 301 295 295 290 280 265 257 250 241 237 239 239 238 240 239 233 229 226
277 271 274 287 284 283 283 281 280 277 273 273 271 270 272 270 268 268 269 272 273 271 274 281 283 283 294 310 315 317 318 317 318 319 315 306 301 304 308 307 305 306 307 308 310 311 311 312 315 319 318 317 318 320 320 320 319 320 322 322 322 325 327 325 312 301 306 312 302 289 284 283 286 290 276 260 247 239 237 239 238 238 240 239 231 223
204 256 287 293 286 282 278 274 272 269 271 276 276 277 279 277 275 272 272 276 277 277 285 292 292 293 305 315 316 317 317 313 308 305 303 302 305 308 306 303 304 305 304 306 307 307 307 309 311 313 314 315 316 316 317 319 319 318 319 320 319 319 322 324 316 299 299 307 303 288 273 269 280 303 322 315 280 252 238 236 238 233 232 235 231 218
228 259 283 282 277 278 276 276 279 282 288 288 283 281 278 276 279 281 284 294 297 300 306 305 299 298 312 318 314 311 308 304 303 305 306 304 302 302 302 303 302 301 302 303 303 302 302 302 305 308 311 312 313 314 315 317 319 318 318 320 319 317 318 322 319 301 293 299 301 289 273 266 269 274 324 29 1 312 258 236 235 231 225 226 222 205
256 268 276 271 275 280 282 288 294 299 294 284 284 291 287 286 294 296 295 297 300 305 305 297 296 303 309 308 305 303 302 301 302 304 302 301 303 304 303 301 300 302 303 302 302 304 303 301 302 305 306 308 310 311 312 313 316 317 317 318 319 317 319 323 321 305 292 293 290 281 273 268 260 249 241 3 16 2 353 219 215 221 217 214 210 203
253 258 262 265 270 277 287 294 298 290 275 267 28 356 313 308 304 299 299 301 303 304 297 293 296 300 304 304 303 301 299 299 301 303 304 306 308 307 301 298 299 300 302 305 311 313 309 306 306 304 301 302 304 306 307 309 313 315 314 317 320 319 318 321 321 309 293 289 284 273 262 247 230 229 235 245 344 18 23 51 94 134 160 166 181 203
247 248 254 261 262 273 290 293 283 270 259 176 51 314 323 348 337 318 311 309 308 302 297 297 299 301 304 298 292 292 297 304 307 305 303 302 302 300 299 301 302 301 303 309 312 309 305 303 302 300 298 298 300 304 305 306 311 313 312 316 322 322 318 317 318 312 298 288 279 269 257 236 219 219 222 219 210 71 40 51 63 73 81 80 73 99
241 244 250 258 260 270 279 266 256 271 301 309 296 302 6 37 358 333 311 298 303 302 299 299 295 293 293 290 292 300 308 312 308 301 299 301 301 300 301 306 309 307 306 307 302 297 296 296 297 297 297 294 293 299 301 301 308 310 309 315 321 322 318 314 315 315 307 291 273 264 256 241 239 243 236 214 206 202 152 77 70 68 67 62 58 66
234 239 246 256 255 261 268 263 265 280 295 297 297 358 51 35 345 339 306 294 298 288 283 282 283 290 297 299 305 311 309 307 304 298 299 302 303 303 307 311 313 311 309 307 303 296 291 292 297 299 297 292 290 294 295 293 299 304 306 315 321 321 318 316 315 314 308 293 270 258 252 245 243 240 221 190 181 185 177 137 109 97 86 75 67 65
224 231 243 252 252 255 265 272 275 277 282 293 98 97 73 13 351 328 296 292 281 272 279 291 306 321 326 316 313 314 310 306 299 294 299 304 307 309 311 311 310 307 306 305 306 304 299 298 298 297 298 297 295 296 294 287 290 299 305 315 320 318 320 321 318 312 303 289 270 257 250 242 235 221 194 177 163 152 151 145 138 134 115 96 79 69
218 228 241 251 260 264 261 265 269 265 277 296 311 332 327 359 47 6 304 287 282 307 325 334 333 333 331 321 317 316 309 299 290 295 302 305 307 307 306 305 303 301 300 301 303 304 303 302 298 293 295 297 297 298 294 286 286 293 303 314 318 317 321 322 318 313 301 283 269 259 244 227 222 209 185 177 168 153 148 143 138 134 115 101 95 95
225 230 238 242 247 246 244 255 262 256 270 286 292 305 338 42 46 352 283 273 332 346 341 334 324 320 317 313 310 307 299 294 296 302 305 305 304 303 302 301 299 298 298 298 298 299 299 300 299 294 292 293 294 295 292 285 284 290 301 312 316 317 322 322 317 313 301 278 264 254 230 206 208 204 183 174 169 159 155 147 137 133 123 115 119 127
226 226 231 240 244 245 247 254 262 264 274 289 298 330 40 51 6 272 262 308 338 334 326 321 316 312 310 308 306 301 298 299 299 300 302 303 301 300 299 299 299 300 300 300 300 299 298 296 295 293 291 290 289 291 289 284 283 289 300 311 314 317 322 320 316 314 305 280 257 240 216 198 209 212 200 194 190 178 173 163 147 141 142 138 134 129
218 218 230 241 246 252 254 257 272 282 307 43 1 315 234 251 256 267 306 325 324 318 313 312 309 307 306 305 304 302 300 300 301 301 301 301 299 299 299 299 297 298 300 301 300 298 296 295 292 290 291 291 291 291 287 280 279 287 299 309 313 319 321 317 316 321 317 285 233 210 198 199 213 214 206 201 197 188 184 179 170 159 149 142 128 107
234 235 244 247 244 252 255 258 268 263 173 68 26 301 226 249 290 310 316 314 311 309 308 307 306 307 308 307 306 304 303 302 301 300 300 300 300 301 300 296 295 298 300 298 293 290 294 295 289 287 290 292 290 289 285 278 277 285 297 307 315 321 320 312 316 332 334 281 181 175 181 193 199 193 184 179 174 162 151 153 164 168 157 140 126 108
249 245 252 249 235 246 246 239 262 303 351 10 353 307 283 292 301 308 309 306 306 307 307 308 308 309 310 309 306 304 303 301 300 300 301 301 302 303 301 298 301 307 308 299 288 289 295 294 286 287 292 291 286 283 282 277 276 282 294 307 316 321 315 304 312 342 3 88 169 173 182 188 182 176 170 161 147 135 131 127 130 145 153 153 150 141
262 290 315 296 264 281 288 284 307 321 322 324 316 300 300 303 304 309 310 307 308 310 309 308 307 306 306 305 303 301 299 298 298 298 299 302 303 301 298 299 304 309 308 301 294 293 295 292 289 290 291 286 282 283 282 276 273 280 293 307 316 318 308 297 309 348 13 28 181 190 190 179 172 170 165 156 143 133 133 130 121 120 126 140 154 157
254 264 311 323 307 315 305 289 290 301 305 307 306 303 305 309 310 312 312 309 309 309 308 306 304 304 303 302 301 298 296 297 299 299 301 305 305 300 297 299 305 307 304 301 300 296 292 291 293 293 290 286 283 284 283 276 272 279 292 304 314 315 305 295 311 347 10 30 183 201 197 179 170 162 153 151 146 139 133 128 124 122 120 124 132 141
257 256 256 255 263 288 292 282 288 297 296 298 303 304 305 309 314 315 316 315 312 309 307 305 303 301 300 300 298 294 294 298 300 302 306 307 305 303 300 300 306 308 301 295 296 297 293 291 290 289 287 286 285 283 284 280 275 280 291 303 312 312 301 296 317 344 11 36 168 207 191 173 172 169 158 151 145 143 137 125 122 120 115 121 128 132
303 318 284 248 244 255 266 274 284 289 290 297 311 320 319 317 318 316 314 312 310 308 306 305 304 301 299 302 302 299 298 301 301 303 309 310 307 306 305 302 307 310 301 293 295 298 294 289 288 288 286 285 284 284 288 285 277 280 290 301 312 309 292 291 319 334 357 13 7 211 186 176 185 188 175 158 151 157 156 144 145 143 121 129 135 130
333 6 305 265 268 267 264 273 288 302 309 315 323 326 321 318 316 314 312 312 311 310 309 309 311 311 307 308 311 307 303 303 303 305 311 314 312 309 308 307 309 308 300 294 295 296 292 289 289 291 290 288 286 286 289 285 275 278 286 297 312 306 272 269 316 328 339 357 9 65 151 166 184 190 190 179 169 177 177 158 145 144 151 189 189 159
297 285 257 266 267 258 271 313 339 342 323 313 315 317 315 316 315 314 315 317 317 318 318 317 317 317 313 311 313 312 309 309 307 307 312 317 316 311 310 312 311 305 298 295 294 293 293 291 291 288 283 285 290 289 289 285 272 273 281 289 308 308 261 252 294 314 324 350 16 57 79 62 122 171 185 182 161 174 200 213 188 155 117 174 191 184
267 259 257 265 265 276 312 337 339 324 305 304 309 311 311 313 316 316 319 321 322 323 325 322 319 318 317 315 316 316 316 318 317 313 313 316 318 315 313 314 314 308 302 298 295 295 293 291 295 294 284 287 294 291 289 285 268 266 277 284 299 306 263 246 270 296 314 346 17 44 44 30 31 60 71 73 95 116 160 229 214 218 262 263 214 222
Height
1484 1489 1489 1485 1480 1473 1470 1471 1473 1472 1473 1476 1477 1477 1475 1473 1468 1459 1452 1442 1440 1453 1453 1446 1448 1448 1447 1444 1438 1436 1435 1433 1434 1433 1435 1436 1438 1441 1442 1445 1448 1450 1453 1455 1456 1457 1457 1456 1456 1456 1456 1461 1465 1464 1464 1463 1462 1460 1459 1459 1460 1462 1464 1466 1468 1470 1473 1474 1473 1472 1472 1471 1472 1473 1474 1475 1477 1479 1480 1482 1483 1485 1487 1488 1489 1489
1482 1490 1488 1478 1473 1470 1470 1471 1472 1473 1474 1475 1476 1476 1472 1470 1465 1455 1452 1446 1441 1453 1455 1446 1448 1449 1444 1442 1437 1434 1434 1433 1432 1432 1433 1434 1437 1441 1443 1447 1450 1452 1454 1455 1457 1457 1457 1457 1457 1457 1456 1458 1462 1464 1463 1462 1462 1461 1459 1458 1459 1460 1462 1463 1465 1466 1469 1471 1472 1471 1470 1470 1470 1471 1471 1473 1475 1477 1478 1479 1481 1483 1485 1487 1487 1488
1483 1484 1477 1468 1467 1470 1472 1471 1472 1474 1473 1473 1472 1472 1470 1465 1461 1455 1449 1446 1446 1455 1458 1452 1454 1451 1441 1438 1435 1432 1431 1429 1429 1430 1431 1433 1436 1442 1446 1449 1452 1454 1455 1456 1456 1457 1456 1457 1457 1458 1458 1457 1459 1461 1461 1460 1460 1460 1459 1458 1458 1458 1459 1461 1462 1463 1465 1467 1470 1470 1470 1470 1470 1470 1470 1471 1473 1474 1476 1477 1479 1480 1482 1484 1485 1486
1482 1477 1467 1462 1466 1472 1474 1471 1472 1473 1470 1468 1467 1469 1468 1460 1463 1463 1454 1451 1452 1455 1457 1453 1452 1446 1437 1434 1432 1430 1428 1426 1429 1430 1431 1433 1437 1442 1447 1451 1453 1455 1456 1456 1456 1456 1456 1457 1457 1457 1458 1459 1459 1460 1461 1460 1459 1458 1459 1458 1458 1458 1458 1458 1459 1460 1461 1463 1466 1469 1469 1469 1469 1469 1470 1471 1471 1472 1473 1474 1476 1477 1479 1480 1482 1483
1480 1472 1464 1464 1468 1473 1476 1474 1474 1473 1469 1466 1463 1464 1466 1462 1463 1465 1459 1456 1455 1454 1451 1449 1451 1445 1438 1438 1435 1430 1429 1428 1429 1429 1431 1434 1437 1442 1447 1452 1455 1455 1456 1456 1456 1457 1457 1458 1459 1458 1459 1459 1458 1459 1461 1461 1459 1457 1456 1457 1457 1457 1457 1457 1458 1458 1458 1460 1462 1465 1467 1467 1468 1468 1468 1468 1468 1468 1469 1471 1472 1474 1476 1477 1479 1480
1477 1469 1466 1470 1471 1473 1477 1477 1474 1470 1470 1470 1462 1457 1461 1464 1464 1464 1461 1460 1463 1463 1452 1450 1465 1459 1441 1439 1437 1432 1432 1431 1430 1430 1431 1434 1438 1442 1447 1452 1455 1456 1456 1457 1458 1459 1459 1460 1460 1459 1459 1458 1456 1457 1458 1459 1458 1456 1455 1455 1455 1455 1456 1456 1456 1456 1456 1456 1458 1460 1462 1463 1464 1464 1464 1464 1464 1465 1466 1467 1469 1471 1473 1475 1476 1478
1474 1467 1465 1468 1468 1472 1477 1477 1472 1468 1474 1478 1466 1457 1461 1465 1466 1465 1463 1464 1470 1470 1453 1448 1466 1465 1447 1441 1436 1433 1435 1434 1433 1433 1433 1435 1439 1443 1447 1452 1454 1456 1458 1459 1460 1461 1461 1461 1460 1460 1459 1458 1456 1456 1455 1454 1456 1456 1454 1453 1453 1453 1454 1454 1455 1455 1454 1454 1454 1456 1458 1459 1460 1460 1460 1461 1462 1462 1464 1465 1467 1468 1470 1472 1474 1475
1471 1470 1468 1466 1469 1474 1479 1478 1471 1469 1480 1481 1466 1462 1465 1465 1466 1465 1464 1467 1466 1462 1454 1446 1450 1459 1457 1446 1435 1432 1437 1437 1437 1438 1436 1437 1442 1446 1449 1452 1454 1456 1458 1460 1461 1461 1461 1461 1460 1460 1460 1458 1457 1455 1453 1452 1453 1455 1454 1452 1452 1451 1451 1452 1453 1453 1453 1452 1452 1453 1454 1456 1457 1458 1458 1459 1460 1461 1462 1463 1465 1466 1467 1469 1471 1472
1471 1474 1473 1472 1476 1479 1479 1476 1472 1474 1481 1477 1466 1465 1465 1463 1465 1462 1461 1462 1455 1453 1458 1449 1444 1459 1463 1446 1436 1437 1441 1442 1441 1441 1441 1441 1445 1449 1451 1453 1454 1456 1457 1459 1461 1461 1461 1461 1460 1460 1459 1459 1457 1455 1453 1452 1451 1453 1455 1453 1451 1450 1449 1449 1450 1450 1450 1451 1450 1450 1451 1453 1454 1455 1456 1457 1457 1458 1459 1461 1462 1463 1465 1466 1468 1469
1473 1473 1471 1472 1477 1479 1476 1474 1473 1476 1477 1469 1463 1463 1461 1459 1456 1454 1456 1453 1448 1454 1462 1453 1447 1461 1464 1448 1441 1445 1446 1446 1443 1441 1444 1448 1450 1451 1453 1455 1455 1457 1458 1460 1461 1461 1461 1461 1461 1459 1459 1458 1457 1455 1454 1453 1452 1452 1454 1454 1451 1449 1448 1447 1448 1448 1448 1449 1449 1449 1449 1449 1451 1453 1454 1455 1455 1456 1457 1458 1459 1460 1461 1463 1465 1466
1468 1464 1466 1470 1474 1474 1475 1475 1473 1472 1469 1462 1461 1462 1461 1457 1451 1453 1452 1448 1457 1466 1461 1450 1444 1455 1466 1454 1443 1447 1448 1445 1443 1445 1449 1452 1453 1453 1454 1456 1457 1458 1460 1462 1463 1462 1462 1463 1461 1460 1460 1459 1458 1457 1456 1455 1454 1452 1451 1452 1450 1448 1447 1445 1445 1446 1446 1447 1447 1447 1447 1447 1449 1451 1452 1453 1453 1453 1454 1454 1456 1457 1458 1460 1461 1463
1466 1463 1466 1471 1474 1472 1475 1476 1471 1467 1464 1464 1466 1466 1467 1465 1459 1462 1457 1455 1474 1477 1456 1444 1441 1451 1466 1457 1445 1446 1445 1443 1446 1449 1452 1453 1453 1454 1456 1458 1459 1460 1462 1463 1465 1464 1464 1464 1463 1461 1461 1461 1460 1459 1458 1457 1455 1453 1451 1450 1448 1447 1445 1444 1444 1444 1445 1446 1446 1446 1446 1447 1448 1449 1450 1451 1451 1451 1451 1451 1452 1454 1455 1456 1458 1460
1473 1466 1465 1470 1473 1474 1478 1479 1475 1470 1468 1472 1471 1470 1479 1481 1478 1484 1481 1474 1481 1472 1451 1446 1449 1459 1463 1452 1444 1447 1446 1447 1449 1451 1453 1454 1455 1456 1458 1460 1462 1463 1465 1465 1466 1467 1467 1467 1465 1463 1463 1461 1460 1459 1459 1458 1456 1454 1452 1449 1448 1446 1445 1445 1445 1446 1446 1446 1446 1446 1446 1446 1447 1448 1449 1449 1450 1450 1449 1450 1450 1451 1452 1453 1454 1456
1484 1474 1469 1472 1474 1475 1479 1482 1484 1481 1477 1479 1475 1476 1486 1488 1495 1505 1495 1484 1482 1469 1454 1451 1458 1468 1464 1449 1444 1448 1450 1451 1452 1454 1456 1457 1458 1460 1461 1464 1465 1466 1467 1467 1467 1468 1468 1468 1467 1466 1464 1462 1461 1460 1459 1458 1456 1455 1452 1449 1448 1447 1448 1448 1448 1448 1449 1448 1447 1447 1447 1447 1447 1447 1447 1448 1449 1449 1449 1449 1450 1450 1450 1451 1452 1453
1499 1492 1481 1480 1480 1478 1479 1480 1483 1483 1481 1479 1472 1474 1479 1481 1495 1506 1496 1491 1490 1477 1466 1464 1470 1475 1468 1454 1445 1446 1451 1453 1455 1457 1459 1460 1462 1463 1464 1466 1467 1468 1469 1469 1469 1468 1469 1468 1467 1466 1465 1463 1462 1461 1459 1458 1456 1455 1453 1450 1449 1449 1450 1449 1448 1448 1449 1448 1448 1448 1448 1448 1448 1447 1447 1447 1448 1449 1449 1449 1449 1450 1449 1450 1451 1452
1503 1496 1481 1481 1482 1479 1480 1479 1478 1483 1484 1476 1469 1474 1476 1473 1482 1491 1488 1484 1484 1484 1480 1475 1473 1467 1457 1450 1446 1447 1452 1454 1457 1459 1459 1462 1463 1464 1467 1468 1468 1470 1470 1471 1470 1469 1469 1468 1467 1466 1465 1464 1462 1461 1459 1458 1456 1455 1453 1451 1450 1450 1449 1447 1445 1445 1447 1448 1447 1448 1448 1448 1448 1448 1447 1447 1447 1447 1448 1448 1448 1449 1449 1449 1450 1450
1507 1499 1481 1481 1483 1478 1480 1480 1477 1485 1488 1480 1478 1480 1472 1467 1473 1483 1487 1478 1479 1492 1486 1472 1470 1460 1450 1453 1453 1454 1457 1457 1459 1461 1463 1467 1467 1468 1471 1471 1472 1473 1473 1472 1471 1470 1469 1467 1467 1467 1466 1465 1463 1461 1459 1458 1457 1455 1453 1451 1450 1448 1446 1445 1443 1443 1444 1445 1446 1447 1448 1449 1448 1448 1447 1446 1445 1445 1446 1447 1447 1447 1448 1448 1449 1449
1510 1507 1491 1486 1489 1482 1479 1481 1477 1477 1480 1483 1485 1478 1468 1470 1471 1477 1489 1488 1489 1497 1484 1470 1473 1468 1464 1466 1460 1457 1461 1462 1462 1465 1468 1471 1472 1473 1475 1475 1476 1475 1474 1473 1471 1470 1469 1468 1468 1468 1467 1465 1463 1461 1460 1459 1458 1455 1453 1451 1449 1447 1445 1443 1442 1441 1441 1442 1443 1445 1447 1448 1448 1447 1446 1445 1444 1444 1444 1444 1445 1445 1446 1447 1447 1448
1508 1513 1501 1489 1491 1486 1480 1484 1483 1472 1468 1474 1477 1471 1473 1485 1483 1479 1490 1497 1497 1497 1485 1472 1470 1468 1467 1464 1458 1459 1463 1465 1468 1470 1472 1474 1476 1477 1478 1478 1478 1476 1475 1474 1472 1471 1470 1469 1469 1468 1466 1465 1463 1462 1460 1459 1458 1456 1454 1451 1449 1447 1445 1442 1441 1440 1440 1440 1440 1441 1443 1444 1445 1445 1445 1444 1443 1442 1442 1442 1443 1443 1444 1445 1446 1446
1507 1516 1511 1493 1489 1490 1486 1487 1488 1478 1469 1469 1472 1472 1474 1481 1482 1480 1482 1486 1493 1497 1490 1480 1473 1468 1460 1452 1455 1464 1466 1469 1474 1474 1476 1478 1479 1480 1481 1480 1480 1479 1478 1476 1475 1474 1472 1471 1470 1468 1467 1465 1463 1462 1460 1459 1458 1456 1454 1452 1450 1448 1445 1443 1441 1440 1440 1439 1438 1438 1438 1439 1440 1441 1442 1442 1442 1442 1441 1441 1442 1442 1443 1444 1444 1444
1504 1512 1515 1501 1492 1496 1494 1486 1483 1481 1479 1478 1480 1483 1481 1478 1477 1478 1476 1473 1481 1491 1492 1490 1486 1471 1454 1448 1456 1466 1469 1472 1475 1476 1479 1480 1480 1482 1483 1482 1482 1481 1480 1479 1477 1476 1473 1472 1470 1468 1467 1465 1463 1461 1459 1458 1458 1456 1454 1453 1451 1449 1446 1443 1442 1441 1440 1438 1437 1436 1434 1435 1436 1436 1438 1439 1441 1441 1441 1441 1441 1442 1443 1443 1443 1443
1508 1510 1515 1510 1503 1501 1493 1481 1477 1478 1479 1482 1486 1485 1484 1483 1482 1490 1492 1478 1474 1483 1485 1490 1490 1471 1454 1453 1458 1465 1471 1473 1475 1478 1480 1481 1482 1483 1483 1483 1483 1482 1480 1479 1477 1476 1474 1472 1469 1467 1466 1463 1461 1460 1459 1458 1457 1456 1455 1453 1451 1450 1447 1444 1442 1440 1439 1437 1435 1434 1433 1432 1433 1434 1435 1436 1437 1438 1439 1439 1439 1439 1440 1440 1441 1441
1513 1514 1517 1515 1506 1498 1489 1479 1476 1476 1477 1482 1486 1481 1480 1481 1483 1494 1501 1489 1482 1485 1482 1487 1491 1471 1457 1459 1461 1465 1471 1472 1475 1479 1480 1481 1483 1483 1483 1483 1482 1481 1480 1479 1477 1476 1474 1472 1470 1467 1465 1462 1460 1458 1458 1458 1456 1455 1454 1454 1452 1449 1447 1445 1442 1440 1438 1435 1433 1432 1431 1431 1430 1430 1431 1432 1434 1435 1435 1436 1436 1435 1435 1436 1438 1439
1515 1514 1515 1512 1500 1490 1482 1474 1470 1472 1476 1482 1483 1480 1479 1481 1482 1487 1491 1489 1491 1493 1490 1496 1496 1474 1461 1463 1463 1465 1467 1468 1473 1477 1480 1482 1483 1483 1483 1482 1480 1480 1479 1478 1476 1474 1473 1472 1470 1468 1465 1462 1459 1457 1457 1456 1455 1454 1452 1452 1452 1449 1447 1445 1443 1440 1437 1434 1431 1429 1429 1428 1427 1426 1426 1427 1430 1431 1432 1434 1434 1433 1432 1433 1435 1436
1518 1514 1515 1518 1512 1502 1493 1482 1476 1475 1479 1483 1484 1482 1481 1480 1483 1485 1486 1490 1495 1494 1491 1498 1495 1475 1463 1464 1464 1464 1465 1465 1468 1474 1478 1481 1481 1481 1481 1479 1479 1478 1477 1477 1475 1473 1472 1470 1469 1467 1465 1463 1460 1458 1456 1455 1454 1452 1451 1450 1449 1448 1446 1444 1443 1441 1438 1434 1431 1429 1427 1426 1424 1423 1423 1424 1426 1428 1429 1431 1431 1432 1431 1431 1432 1434
1520 1516 1517 1522 1523 1519 1511 1500 1492 1489 1489 1488 1487 1486 1484 1484 1487 1490 1492 1497 1499 1493 1487 1490 1487 1473 1464 1464 1465 1466 1467 1467 1469 1472 1475 1476 1477 1479 1478 1477 1477 1476 1475 1475 1474 1472 1471 1469 1467 1466 1464 1463 1461 1459 1456 1454 1453 1451 1450 1448 1446 1446 1445 1443 1442 1441 1439 1435 1431 1429 1427 1424 1423 1423 1422 1422 1422 1424 1426 1427 1428 1429 1429 1429 1429 1432
1519 1516 1515 1516 1515 1513 1508 1499 1493 1494 1496 1494 1491 1489 1489 1489 1489 1492 1497 1499 1496 1493 1488 1483 1480 1475 1470 1470 1471 1469 1469 1470 1470 1471 1473 1473 1474 1477 1477 1476 1475 1475 1475 1473 1472 1471 1469 1467 1466 1465 1464 1463 1461 1459 1457 1454 1452 1451 1449 1447 1444 1443 1443 1442 1441 1439 1438 1436 1432 1429 1426 1422 1421 1421 1420 1419 1420 1421 1422 1424 1425 1426 1427 1427 1427 1428
1518 1517 1512 1510 1508 1505 1501 1498 1495 1496 1497 1495 1494 1492 1491 1491 1491 1494 1498 1495 1492 1496 1492 1480 1477 1480 1477 1474 1473 1470 1470 1471 1471 1472 1473 1473 1475 1477 1476 1475 1473 1473 1473 1472 1470 1469 1467 1466 1465 1463 1463 1462 1460 1458 1456 1454 1452 1450 1448 1446 1444 1442 1440 1439 1438 1437 1436 1434 1432 1430 1426 1422 1419 1418 1417 1417 1417 1418 1419 1420 1422 1423 1423 1424 1425 1426
1517 1517 1512 1509 1508 1504 1500 1499 1496 1496 1496 1493 1493 1492 1491 1491 1491 1492 1492 1488 1489 1494 1489 1480 1479 1481 1477 1474 1473 1472 1472 1474 1474 1473 1474 1475 1476 1475 1474 1474 1473 1472 1471 1469 1468 1467 1466 1465 1463 1462 1462 1460 1458 1457 1454 1452 1450 1448 1447 1445 1443 1441 1438 1436 1436 1435 1434 1432 1430 1429 1426 1422 1418 1415 1414 1413 1413 1414 1415 1416 1419 1420 1419 1420 1422 1424
1516 1516 1511 1510 1509 1505 1502 1500 1497 1496 1495 1491 1489 1487 1485 1485 1486 1487 1487 1485 1485 1486 1482 1479 1479 1476 1474 1474 1474 1474 1476 1477 1476 1476 1476 1476 1474 1473 1472 1472 1471 1471 1470 1468 1466 1465 1465 1463 1462 1461 1460 1458 1457 1455 1453 1451 1449 1446 1446 1444 1441 1439 1437 1434 1433 1433 1432 1429 1427 1426 1425 1421 1417 1414 1412 1411 1410 1411 1412 1414 1415 1415 1416 1417 1419 1420
1516 1516 1511 1511 1512 1508 1503 1498 1495 1492 1490 1487 1485 1483 1482 1483 1483 1483 1483 1482 1483 1483 1480 1479 1479 1476 1474 1474 1475 1476 1478 1477 1477 1476 1475 1474 1473 1472 1471 1470 1469 1469 1468 1467 1465 1464 1462 1461 1461 1460 1458 1457 1456 1454 1452 1450 1447 1445 1444 1442 1440 1437 1435 1433 1430 1429 1429 1427 1424 1423 1422 1420 1417 1415 1412 1409 1408 1408 1409 1411 1413 1412 1413 1414 1415 1416
1513 1514 1511 1512 1515 1508 1500 1496 1492 1488 1488 1488 1487 1484 1483 1483 1483 1481 1481 1482 1484 1485 1485 1485 1484 1479 1476 1477 1477 1477 1477 1477 1476 1475 1474 1473 1472 1470 1469 1469 1468 1467 1466 1464 1463 1461 1460 1459 1458 1458 1457 1455 1453 1452 1450 1448 1446 1444 1442 1440 1438 1435 1433 1430 1427 1426 1425 1424 1422 1421 1419 1418 1416 1414 1412 1410 1408 1408 1408 1408 1409 1410 1411 1411 1412 1415
1511 1513 1512 1513 1515 1507 1498 1496 1492 1491 1497 1496 1488 1483 1482 1481 1482 1482 1482 1483 1483 1485 1488 1489 1485 1481 1479 1479 1478 1477 1476 1475 1474 1473 1473 1471 1468 1467 1467 1466 1465 1464 1463 1461 1459 1458 1458 1457 1456 1456 1455 1454 1452 1450 1449 1446 1445 1442 1440 1438 1436 1433 1431 1428 1424 1422 1422 1421 1420 1419 1418 1416 1414 1412 1412 1411 1411 1409 1408 1407 1406 1407 1409 1409 1410 1413
1511 1512 1511 1512 1513 1508 1500 1496 1496 1501 1505 1496 1483 1480 1482 1481 1483 1484 1484 1484 1484 1485 1488 1487 1483 1480 1480 1479 1478 1477 1475 1473 1471 1470 1470 1469 1467 1466 1465 1463 1462 1462 1460 1459 1457 1457 1456 1455 1455 1455 1453 1452 1451 1448 1447 1445 1443 1441 1438 1436 1434 1431 1429 1425 1422 1420 1419 1418 1417 1416 1415 1414 1413 1411 1410 1411 1412 1411 1408 1406 1405 1406 1407 1407 1408 1409
1510 1511 1510 1509 1509 1506 1500 1501 1509 1509 1496 1482 1478 1479 1481 1482 1483 1485 1486 1486 1485 1486 1486 1485 1483 1481 1480 1479 1477 1475 1472 1470 1469 1468 1468 1468 1467 1465 1463 1461 1460 1459 1458 1456 1456 1455 1455 1454 1453 1452 1451 1450 1448 1446 1445 1443 1441 1439 1437 1434 1432 1429 1426 1423 1419 1417 1416 1415 1414 1414 1413 1413 1413 1411 1410 1410 1411 1410 1409 1407 1406 1405 1406 1406 1406 1407
1507 1509 1509 1507 1507 1506 1503 1506 1510 1499 1481 1475 1478 1478 1480 1484 1487 1489 1491 1489 1487 1487 1485 1485 1483 1480 1478 1476 1473 1471 1470 1470 1469 1466 1465 1466 1465 1463 1461 1459 1458 1457 1456 1455 1454 1453 1452 1452 1451 1449 1447 1446 1445 1444 1443 1441 1439 1437 1434 1432 1429 1427 1424 1421 1417 1414 1412 1411 1411 1411 1411 1411 1412 1411 1410 1410 1409 1409 1408 1408 1408 1407 1407 1407 1408 1409
1504 1507 1508 1507 1506 1505 1506 1503 1496 1489 1483 1481 1480 1481 1485 1488 1489 1493 1495 1491 1488 1487 1485 1482 1478 1473 1472 1472 1471 1470 1471 1469 1467 1464 1463 1464 1463 1461 1459 1457 1456 1455 1453 1453 1452 1450 1449 1447 1446 1445 1444 1442 1442 1440 1439 1438 1437 1435 1432 1429 1427 1425 1422 1418 1413 1411 1409 1407 1408 1408 1408 1409 1410 1409 1409 1409 1407 1407 1407 1407 1409 1410 1409 1409 1409 1411
1502 1503 1505 1508 1505 1502 1504 1503 1498 1497 1494 1486 1482 1484 1486 1488 1489 1492 1495 1491 1486 1483 1481 1478 1474 1472 1471 1472 1472 1471 1471 1470 1466 1462 1461 1462 1461 1459 1458 1456 1455 1453 1452 1450 1449 1447 1445 1444 1442 1442 1440 1438 1438 1437 1435 1435 1434 1432 1429 1426 1424 1422 1420 1415 1410 1407 1405 1403 1404 1406 1406 1407 1409 1408 1407 1406 1406 1406 1406 1406 1409 1411 1411 1411 1411 1412
1500 1501 1502 1507 1507 1503 1506 1506 1503 1500 1493 1483 1481 1482 1483 1485 1487 1491 1495 1491 1481 1478 1478 1477 1476 1476 1475 1474 1473 1472 1472 1470 1465 1460 1460 1461 1459 1457 1456 1453 1452 1450 1449 1447 1446 1443 1442 1441 1439 1438 1437 1435 1433 1433 1432 1432 1431 1428 1425 1423 1421 1419 1417 1413 1408 1404 1402 1400 1400 1402 1404 1405 1407 1407 1406 1404 1405 1406 1406 1406 1407 1409 1410 1410 1410 1412
1497 1499 1502 1506 1507 1504 1505 1504 1499 1493 1486 1480 1480 1481 1483 1485 1488 1495 1500 1490 1476 1476 1479 1478 1477 1477 1475 1474 1473 1471 1470 1467 1462 1459 1460 1459 1457 1455 1453 1450 1448 1447 1444 1444 1442 1440 1439 1438 1437 1435 1434 1432 1431 1429 1429 1429 1427 1425 1423 1421 1418 1416 1414 1411 1407 1403 1400 1398 1397 1399 1401 1402 1404 1406 1405 1403 1404 1405 1406 1407 1407 1408 1409 1409 1409 1411
1497 1499 1502 1502 1500 1499 1499 1499 1494 1486 1481 1478 1479 1481 1483 1487 1491 1497 1495 1482 1474 1477 1478 1476 1476 1475 1473 1473 1471 1468 1467 1464 1461 1459 1458 1457 1454 1451 1449 1447 1445 1442 1440 1439 1438 1436 1435 1435 1434 1432 1430 1430 1428 1427 1426 1425 1423 1421 1420 1418 1416 1413 1410 1408 1406 1403 1399 1396 1396 1397 1398 1400 1403 1404 1404 1403 1404 1405 1406 1407 1408 1408 1408 1409 1410 1412
1497 1498 1497 1495 1494 1493 1492 1492 1491 1486 1480 1478 1480 1482 1484 1489 1491 1488 1481 1476 1476 1477 1476 1475 1475 1473 1472 1471 1469 1466 1464 1462 1460 1458 1455 1453 1451 1448 1445 1443 1440 1438 1436 1436 1435 1434 1432 1431 1430 1429 1427 1427 1425 1424 1423 1422 1420 1419 1418 1416 1413 1410 1407 1404 1403 1401 1398 1395 1394 1394 1395 1398 1401 1403 1403 1403 1403 1404 1405 1407 1408 1408 1409 1410 1411 1412
1487 1490 1490 1487 1488 1490 1491 1492 1495 1491 1482 1478 1481 1483 1483 1486 1485 1480 1476 1476 1477 1476 1475 1474 1473 1471 1470 1468 1466 1464 1461 1458 1457 1455 1452 1450 1448 1445 1442 1438 1435 1435 1433 1431 1431 1429 1427 1427 1426 1424 1424 1424 1423 1421 1420 1418 1417 1416 1416 1414 1411 1408 1405 1402 1400 1397 1393 1391 1391 1391 1393 1397 1400 1402 1402 1402 1402 1403 1404 1406 1407 1408 1409 1410 1411 1412
1483 1486 1488 1485 1484 1488 1491 1490 1487 1484 1479 1479 1482 1483 1482 1482 1480 1478 1477 1475 1474 1474 1474 1472 1470 1470 1469 1467 1464 1461 1458 1456 1454 1451 1448 1445 1443 1442 1438 1433 1431 1430 1427 1425 1425 1424 1423 1423 1422 1420 1420 1420 1419 1418 1417 1416 1414 1414 1414 1412 1409 1406 1403 1401 1398 1394 1390 1389 1390 1391 1392 1395 1399 1401 1401 1401 1402 1403 1404 1405 1407 1408 1409 1410 1411 1412
1484 1485 1488 1486 1482 1483 1485 1482 1479 1478 1478 1480 1481 1480 1479 1479 1479 1478 1478 1475 1473 1473 1473 1471 1469 1468 1467 1465 1462 1457 1454 1452 1450 1447 1444 1442 1439 1437 1434 1430 1427 1426 1423 1421 1421 1420 1419 1419 1418 1417 1417 1416 1416 1415 1415 1413 1411 1411 1411 1410 1408 1405 1403 1400 1397 1393 1388 1388 1390 1392 1394 1396 1399 1400 1400 1401 1401 1402 1404 1405 1406 1407 1409 1410 1411 1413
1485 1485 1488 1488 1486 1485 1483 1481 1479 1479 1479 1479 1479 1479 1478 1478 1477 1477 1477 1476 1474 1473 1472 1471 1469 1466 1464 1462 1458 1453 1450 1450 1446 1442 1439 1437 1434 1432 1430 1427 1425 1423 1421 1419 1418 1417 1416 1415 1414 1414 1413 1413 1413 1413 1412 1411 1409 1409 1409 1409 1408 1405 1403 1401 1398 1394 1390 1389 1391 1394 1395 1396 1399 1399 1400 1400 1401 1402 1403 1405 1406 1407 1409 1410 1411 1413
1482 1483 1484 1486 1489 1490 1486 1481 1479 1479 1480 1479 1478 1478 1477 1477 1478 1477 1477 1476 1474 1472 1470 1469 1467 1464 1461 1458 1455 1451 1447 1445 1443 1438 1434 1432 1429 1427 1425 1423 1421 1419 1417 1416 1415 1414 1414 1413 1412 1411 1410 1410 1411 1410 1410 1409 1408 1407 1408 1408 1407 1405 1403 1401 1399 1396 1392 1390 1392 1395 1395 1396 1398 1399 1400 1400 1401 1402 1403 1404 1405 1407 1408 1410 1412 1413
1484 1483 1482 1483 1486 1488 1485 1481 1479 1479 1479 1478 1478 1478 1477 1478 1478 1477 1477 1476 1474 1471 1469 1466 1464 1461 1456 1454 1452 1449 1443 1441 1439 1436 1431 1428 1425 1423 1422 1420 1417 1415 1413 1412 1412 1412 1411 1410 1410 1409 1408 1408 1409 1408 1408 1407 1406 1406 1406 1407 1406 1405 1404 1403 1400 1396 1392 1391 1392 1394 1395 1396 1397 1398 1399 1400 1400 1401 1402 1404 1405 1407 1408 1410 1412 1413
1486 1486 1485 1484 1485 1484 1482 1479 1478 1478 1478 1477 1479 1480 1479 1478 1477 1476 1475 1474 1472 1469 1465 1462 1459 1458 1454 1451 1448 1444 1441 1437 1435 1432 1429 1425 1422 1420 1418 1416 1414 1412 1410 1409 1409 1409 1409 1408 1408 1407 1407 1407 1407 1406 1406 1406 1405 1404 1404 1406 1405 1404 1404 1403 1401 1397 1394 1391 1391 1392 1394 1395 1397 1398 1399 1400 1400 1401 1402 1403 1405 1407 1408 1409 1411 1413
1486 1487 1486 1486 1486 1483 1479 1477 1478 1480 1480 1479 1479 1480 1479 1478 1477 1474 1473 1471 1469 1466 1463 1457 1453 1452 1452 1449 1446 1442 1438 1435 1432 1429 1426 1422 1419 1418 1416 1414 1412 1410 1408 1408 1408 1407 1407 1407 1406 1405 1405 1405 1405 1404 1404 1404 1404 1403 1403 1404 1404 1403 1403 1403 1402 1400 1397 1394 1391 1391 1392 1393 1395 1396 1397 1398 1399 1400 1402 1403 1405 1406 1408 1410 1411 1413
1487 1486 1484 1483 1482 1479 1477 1477 1479 1481 1481 1479 1479 1479 1478 1477 1476 1473 1471 1469 1466 1463 1461 1456 1451 1447 1446 1445 1443 1440 1436 1432 1429 1427 1423 1420 1418 1416 1414 1412 1410 1408 1407 1407 1406 1405 1405 1405 1404 1403 1403 1402 1403 1403 1402 1403 1403 1402 1402 1403 1403 1403 1403 1402 1402 1401 1400 1397 1394 1392 1392 1393 1393 1393 1394 1395 1396 1398 1400 1403 1405 1407 1408 1410 1412 1413